SL-14 DEB, 47080

Orbit data source: Space-Track

SL-14 DEB, 47080 is space debris in LEO originally from a launch on Thu, 15 Aug 1991 UTC launched from the Plesetsk Missile And Space Complex (PKMTR). Debris objects in space refer to the collection of defunct objects orbiting the Earth. Examples of debris include non-operational satellites, rocket bodies, and fragments generated from explosions, collisions, or faulty payload assembly.

Loading next visibility...
Identifier
47080, 1991-056DE
Orbit
LEO
Country
Flag of CISCIS
Related business
Manufacturer
Unknown
Mission
Spacecraft
Bus & Motor
Unknown
Mass
Unknown
Launch date (UTC)
1991-08-15 (34 years ago)
Launch vehicle
Unknown
Launch site
Plesetsk Missile And Space Complex (PKMTR)
Object type
Payload
Rocket body
Debris
Shape & HBR
Unknown shape, 0.1 m
Radar Cross Section
Small (<0.1 m²)

Expand to show TLE details & history
Last TLE update: 20 hours ago

TLE from 20 hours ago
0 SL-14 DEB
1 47080U 91056DE  25354.06289273  .00013035  00000-0  74749-2 0  9991
2 47080  82.5028 109.0698 0142203 307.5344  51.2973 14.04345022256798
Epoch: 2025-12-20T01:30Z
TLE epoch observation values (Epoch: 2025-12-20T01:30:33.931Z)
Latitude
-0.0001°
Longitude
-2.46667°
Altitude
818.085 km
Speed
7.477 km/s
True Right ascension
07h 16m 16s
True Declination
0° 00' 00"
Sunlit
Object was in full shadow at epoch
Visualization orbit readout
Latitude
Unknown
Longitude
Unknown
Altitude
Unknown
Speed
Unknown
Apparent Right ascension
Unknown
Apparent Declination
Unknown
Sunlit
N/A
Visualization observer readout
Local Sidereal Time
20:49:10
Azimuth
Unknown
Elevation
Unknown
Doppler factor
Unknown
Orbital elements
Apogee altitude
979.068 km
Perigee altitude
772.758 km
Semi-major axis
7,254.05 km
Eccentricity
0.01422
Inclination
82.5028°
RAAN
109.0698°
Arg. of periapsis
307.5344°
True anomaly
52.58316°
Mean anomaly
51.2973°
Eccentric anomaly
51.93881°
Mean motion
3.51295 °/min
Orbital period
102.48 mins
BSTAR
0.0074749
Loading maneuver chart data...
Computing Atmospheric mass density...
Loading historical data...
Loading historical data...
Loading historical data...
Loading historical data...
Loading historical data...
Loading historical data...
Loading historical data...

Documentation

Showing up to 5 results
|